Location: Newark
(44.5869°N, 123.1150°W)
Time: 21:59:25
(UTC+00:00)

ISS - Visible Passes

Search period start: 30 September 2020 00:00
Search period end: 10 October 2020 00:00
Orbit: 419 x 421 km, 51.6° (Epoch: 01 October)

Date Brightness Start Highest point End Pass type
(mag) Time Alt. Az. Time Alt. Az. Time Alt. Az.
30 Sep -2.1 02:46:07 10° NW 02:48:59 25° N 02:51:28 12° ENE visible
30 Sep -1.4 04:22:54 10° NW 04:24:26 24° NW 04:24:26 24° NW visible
01 Oct -3.2 03:35:39 10° NW 03:38:55 45° NNE 03:38:58 45° NNE visible
02 Oct -2.7 02:48:23 10° NW 02:51:31 34° NNE 02:53:32 18° ENE visible
02 Oct -1.2 04:25:10 10° WNW 04:26:30 21° WNW 04:26:30 21° WNW visible
03 Oct -3.8 03:37:49 10° WNW 03:41:06 82° WSW 03:41:06 82° WSW visible
04 Oct -3.7 02:50:30 10° NW 02:53:52 65° NNE 02:55:47 23° ESE visible
04 Oct -0.7 04:27:53 10° W 04:28:46 14° W 04:28:46 14° W visible
05 Oct -2.4 03:40:12 10° WNW 03:43:14 31° SW 03:43:31 31° SSW visible
06 Oct -3.1 02:52:42 10° WNW 02:55:59 51° SW 02:58:22 17° SE visible
07 Oct -0.9 03:43:35 10° WSW 03:45:01 12° SW 03:46:21 10° SSW visible
08 Oct -1.3 02:55:20 10° W 02:57:51 20° SW 03:00:21 10° S visible
09 Oct -1.9 02:07:36 10° WNW 02:10:38 31° SW 02:13:38 10° SSE visible
